This is the latest recevied weather packets stored in our database for station/object HB9HUT-13. If no packets are shown the sender has not sent any weather packets the latest 10 day(s).
| Time | Temp. | Humidity | Pressure | Rain* | Wind** | Luminosity | Snow |
|---|---|---|---|---|---|---|---|
| 1777825596 | 20° C | 31% | 845.8 hPa | - | - | - | - |
| 1777824693 | 21.11° C | 30% | 845.7 hPa | - | - | - | - |
| 1777823790 | 21.67° C | 30% | 845.7 hPa | - | - | - | - |
| 1777823789 | 21.67° C | 30% | 845.7 hPa | - | - | - | - |
| 1777822887 | 22.22° C | 30% | 845.6 hPa | - | - | - | - |
| 1777822886 | 22.22° C | 30% | 845.6 hPa | - | - | - | - |
| 1777821984 | 22.22° C | 29% | 845.6 hPa | - | - | - | - |
| 1777821984 | 22.22° C | 29% | 845.6 hPa | - | - | - | - |
| 1777821081 | 23.33° C | 30% | 845.5 hPa | - | - | - | - |
| 1777820178 | 23.33° C | 29% | 845.3 hPa | - | - | - | - |
| 1777819275 | 23.33° C | 30% | 845.3 hPa | - | - | - | - |
| 1777818372 | 23.89° C | 29% | 845.3 hPa | - | - | - | - |
| 1777817469 | 23.89° C | 30% | 845.3 hPa | - | - | - | - |
| 1777815663 | 24.44° C | 30% | 845.5 hPa | - | - | - | - |
| 1777814760 | 24.44° C | 31% | 845.7 hPa | - | - | - | - |
| 1777814759 | 24.44° C | 31% | 845.7 hPa | - | - | - | - |
| 1777813857 | 23.33° C | 30% | 845.8 hPa | - | - | - | - |
| 1777812954 | 22.22° C | 29% | 846 hPa | - | - | - | - |
| 1777812051 | 20.56° C | 27% | 846.1 hPa | - | - | - | - |
| 1777812050 | 20.56° C | 27% | 846.1 hPa | - | - | - | - |
| 1777811148 | 20.56° C | 27% | 846.2 hPa | - | - | - | - |
| 1777811147 | 20.56° C | 27% | 846.2 hPa | - | - | - | - |
| 1777810245 | 20.56° C | 29% | 846.2 hPa | - | - | - | - |
| 1777810244 | 20.56° C | 29% | 846.2 hPa | - | - | - | - |
| 1777809342 | 20.56° C | 27% | 846.3 hPa | - | - | - | - |
* Rain since midnight (hover to see other rain measurements)
** Current wind speed in m/s (hover to see current wind gust speed)